Satellite: PO-34
Catalog number: 25520
Epoch time:      06018.90925827
Element set:    0391
Inclination:      028.4611 deg
RA of node:       309.7161 deg
Eccentricity:    0.0005186
Arg of perigee:   058.3972 deg
Mean anomaly:     301.7132 deg
Mean motion:   15.16587154 rev/day
Decay rate:       4.64e-06 rev/day^2
Epoch rev:           39936
Checksum:              308

Satellite: ISS
Catalog number: 25544
Epoch time:      06019.84784722
Element set:     184
Inclination:      051.6429 deg
RA of node:       230.2519 deg
Eccentricity:    0.0010332
Arg of perigee:   172.1009 deg
Mean anomaly:     015.7627 deg
Mean motion:   15.74100697 rev/day
Decay rate:      8.548e-05 rev/day^2
Epoch rev:           40978
Checksum:              298

Satellite: OO-38
Catalog number: 26063
Epoch time:      06018.74371665
Element set:    0527
Inclination:      100.1907 deg
RA of node:       282.8878 deg
Eccentricity:    0.0037163
Arg of perigee:   167.8436 deg
Mean anomaly:     192.3649 deg
Mean motion:   14.35750335 rev/day
Decay rate:       -5.0e-08 rev/day^2
Epoch rev:           31323
Checksum:              312

Satellite: NO-45
Catalog number: 26932
Epoch time:      06019.41071214
Element set:     221
Inclination:      067.0568 deg
RA of node:       030.5695 deg
Eccentricity:    0.0006107
Arg of perigee:   289.8563 deg
Mean anomaly:     070.1878 deg
Mean motion:   14.29512253 rev/day
Decay rate:      -1.55e-06 rev/day^2
Epoch rev:           22470
Checksum:              289

Satellite: UWE-1
Catalog number: 28892
Epoch time:      06019.61542669
Element set:     296
Inclination:      098.1814 deg
RA of node:       280.1117 deg
Eccentricity:    0.0016475
Arg of perigee:   275.8135 deg
Mean anomaly:     084.1189 deg
Mean motion:   14.59293091 rev/day
Decay rate:       1.35e-06 rev/day^2
Epoch rev:            1230
Checksum:              306

Satellite: XI-V
Catalog number: 28895
Epoch time:      06019.61218834
Element set:     278
Inclination:      098.1845 deg
RA of node:       280.1371 deg
Eccentricity:    0.0017062
Arg of perigee:   275.8159 deg
Mean anomaly:     084.1100 deg
Mean motion:   14.59348857 rev/day
Decay rate:       1.24e-06 rev/day^2
Epoch rev:            1218
Checksum:              305

Satellite: NCUBE2
Catalog number: 28897
Epoch time:      06017.75405196
Element set:    0017
Inclination:      098.1775 deg
RA of node:       278.3055 deg
Eccentricity:    0.0016253
Arg of perigee:   285.0869 deg
Mean anomaly:     074.8531 deg
Mean motion:   14.59502267 rev/day
Decay rate:       1.42e-06 rev/day^2
Epoch rev:           00418
Checksum:              315

/EX




----
Via the keps mailing list at AMSAT.ORG courtesy of AMSAT-NA.
To unsubscribe, send "unsubscribe keps" to Majordomo@amsat.org

--- ViaMAIL!/WC v1.60d
 * Origin: Chowdanet (401-724-4410) telnet://chowdanet.com  (1:323/120)